Location: Bas Lanzent
(48.1360°N, 3.5871°W)
Time: 19:07:01
(UTC+00:00)

Cosmos 1459 Rocket - Pass Details

Date: 18 February 2020
Orbit: 938 x 999 km, 83.0° (Epoch: 05 April)

Event Time Altitude Azimuth Distance (km) Brightness Sun altitude
Rises 05:35:00 0° 350° (N) 3,639 6.9 -17.6°
Reaches altitude 10° 05:37:29 10° 350° (N) 2,697 6.2 -17.2°
Maximum altitude 05:43:41 88° 262° (W) 974 3.9 -16.2°
Drops below altitude 10° 05:49:55 10° 174° (S) 2,720 6.4 -15.2°
Sets 05:52:26 0° 175° (S) 3,672 7.1 -14.7°
